Volver al catálogo

STARLINK-32336

ActivoComunicacionesVLEO
NORAD 61004·PAYLOAD·🇺🇸 United States

Lanzado Sep 5, 2024 desde Cape Canaveral Space Force Station

Loading…

Próximos Pases (próximas 24 horas)

TLE

ActualizadoSource: CelesTrak SupGP

Época: Sep 15, 2026, 02:18 UTC

1 61004C 24158Q   26258.09631944 -.00008830  00000+0 -26122-3 0  2584
2 61004  53.1574 262.7252 0001192 104.4453 235.3561 15.34355805    13

Sigue STARLINK-32336 en tiempo real con AllMySat

Download on the App Store